W1REH Weather Reports


time (UTC)temp
F
wind
direction
speed
knots
gust
knots
rain 1hr
in
rain 24hr
in
rain mn
in
humidity
%
barometer
mb
20260507021102 58 0 0.0 2.6 0.00 0.04 0.04 100 1006.0
20260507020559 58 0 0.0 2.6 0.00 0.04 0.04 100 1006.1
20260507020115 58 294 0.0 2.6 0.00 0.04 0.04 100 1006.1
20260507015602 58 0 0.0 2.6 0.00 0.04 0.04 100 1006.0
20260507015059 58 0 0.0 3.5 0.00 0.04 0.04 100 1006.0
20260507014605 58 0 0.0 3.5 0.00 0.04 0.04 100 1006.2
20260507014058 58 294 0.0 2.6 0.00 0.04 0.04 100 1006.2
20260507013602 58 0 0.0 2.6 0.00 0.04 0.04 100 1006.2
20260507013100 58 0 0.0 2.6 0.00 0.04 0.04 100 1006.0
20260507012558 58 0 0.0 1.7 0.00 0.04 0.04 100 1005.9
20260507012059 58 0 0.0 2.6 0.00 0.04 0.04 100 1005.9
20260507011601 58 0 0.0 2.6 0.00 0.04 0.04 100 1006.1
20260507011059 58 295 0.0 2.6 0.00 0.04 0.04 100 1006.2
20260507010559 58 0 0.0 2.6 0.00 0.04 0.04 100 1006.2
20260507010104 58 295 0.0 2.6 0.00 0.04 0.04 100 1006.3
20260507005559 58 295 0.0 4.3 0.00 0.04 0.04 100 1006.2
20260507005058 58 0 0.0 4.3 0.00 0.04 0.04 100 1006.4
20260507004605 58 0 0.0 3.5 0.00 0.04 0.04 100 1006.2
20260507004058 58 276 0.0 3.5 0.00 0.04 0.04 100 1006.4
20260507003600 58 0 0.0 3.5 0.00 0.04 0.04 100 1006.3
20260507003100 58 0 0.0 1.7 0.00 0.04 0.04 1 1006.4
20260507002559 58 298 0.0 2.6 0.00 0.04 0.04 1 1006.2
20260507002059 58 0 0.0 2.6 0.00 0.04 0.04 1 1006.3
20260507001601 58 0 0.0 2.6 0.00 0.04 0.04 2 1006.2
20260507001100 58 0 0.0 3.5 0.00 0.04 0.04 2 1006.2
20260507000558 58 0 0.0 3.5 0.00 0.04 0.04 2 1006.0
20260507000101 58 276 0.0 3.5 0.00 0.04 0.04 3 1006.0
20260506235602 58 278 0.0 1.7 0.01 0.04 0.04 3 1005.9
20260506235058 58 0 0.0 0.9 0.01 0.04 0.04 3 1005.7
20260506234557 58 0 0.0 0.9 0.02 0.04 0.04 3 1005.8
20260506234058 58 0 0.0 0.9 0.02 0.04 0.04 3 1005.8
20260506233559 58 0 0.0 2.6 0.02 0.04 0.04 4 1005.8
20260506233111 58 0 0.0 3.5 0.02 0.04 0.04 4 1005.7
20260506232558 58 0 0.0 3.5 0.02 0.04 0.04 4 1005.8
20260506232058 58 0 0.0 3.5 0.02 0.04 0.04 4 1005.7
20260506231603 58 0 0.0 2.6 0.02 0.04 0.04 4 1005.8
20260506231059 58 0 0.0 1.7 0.02 0.04 0.04 5 1005.7
20260506230558 58 278 0.0 1.7 0.02 0.04 0.04 5 1005.7
20260506230100 58 0 0.0 1.7 0.02 0.04 0.04 6 1005.7
20260506225558 58 0 0.0 1.7 0.01 0.03 0.03 6 1005.8
20260506225059 58 278 0.0 2.6 0.01 0.03 0.03 6 1005.8
20260506224601 58 0 0.0 2.6 0.00 0.02 0.02 7 1005.9
20260506224057 58 0 0.0 1.7 0.00 0.02 0.02 7 1005.8
20260506223558 59 0 0.0 1.7 0.00 0.02 0.02 7 1005.9
20260506223058 59 0 0.0 1.7 0.00 0.02 0.02 7 1006.0
20260506222558 59 0 0.0 1.7 0.00 0.02 0.02 8 1006.0
20260506222058 59 0 0.0 1.7 0.00 0.02 0.02 9 1005.9
20260506221612 59 0 0.0 2.6 0.00 0.02 0.02 9 1006.0
20260506221059 59 0 0.0 3.5 0.00 0.02 0.02 9 1005.9
20260506220559 59 0 0.0 3.5 0.00 0.02 0.02 10 1006.0
20260506220059 59 0 0.0 3.5 0.00 0.02 0.02 10 1006.1
20260506215559 59 0 0.0 2.6 0.00 0.02 0.02 11 1006.2
20260506215059 59 0 0.0 2.6 0.00 0.02 0.02 11 1006.1
20260506214612 59 268 0.0 2.6 0.00 0.02 0.02 11 1006.1
20260506214059 59 0 0.0 0.9 0.00 0.02 0.02 12 1006.2
20260506213558 59 0 0.0 0.9 0.00 0.02 0.02 12 1006.1
20260506213129 59 0 0.0 5.2 0.00 0.02 0.02 13 1006.4
20260506212600 59 0 0.0 5.2 0.00 0.02 0.02 14 1006.4
20260506212058 59 115 0.0 5.2 0.00 0.02 0.02 15 1006.4
20260506211600 59 0 0.0 5.2 0.00 0.02 0.02 16 1006.4
20260506211059 59 0 0.0 5.2 0.00 0.02 0.02 16 1006.6
20260506210600 59 0 0.0 1.7 0.00 0.02 0.02 17 1006.6
20260506210104 59 40 0.0 1.7 0.00 0.02 0.02 17 1006.4
20260506205558 59 0 0.0 2.6 0.00 0.02 0.02 18 1006.6
20260506205058 59 0 0.0 2.6 0.00 0.02 0.02 19 1006.7
20260506204558 59 210 0.0 6.1 0.00 0.02 0.02 20 1006.6
20260506204058 59 163 0.0 6.1 0.00 0.02 0.02 21 1006.7
20260506203559 59 107 0.9 3.5 0.00 0.02 0.02 22 1006.8
20260506203101 59 0 0.0 3.5 0.00 0.02 0.02 23 1006.8
20260506202558 59 0 0.0 3.5 0.00 0.02 0.02 24 1006.9
20260506202059 59 0 0.9 3.5 0.00 0.02 0.02 24 1006.8
20260506201558 59 0 0.0 3.5 0.01 0.02 0.02 25 1006.8
20260506201059 59 0 0.0 3.5 0.02 0.02 0.02 25 1007.1
20260506200558 59 0 0.0 4.3 0.02 0.02 0.02 26 1007.0
20260506195559 60 298 0.0 2.6 0.02 0.02 0.02 27 1007.1
20260506195102 60 269 0.0 3.5 0.02 0.02 0.02 30 1006.9
20260506194602 60 0 0.0 3.5 0.02 0.02 0.02 31 1007.0
20260506194059 60 288 0.0 2.6 0.02 0.02 0.02 32 1007.1
20260506193600 60 152 0.0 2.6 0.02 0.02 0.02 33 1007.1
20260506193100 61 0 0.0 7.8 0.02 0.02 0.02 35 1007.1
20260506192558 61 232 0.9 7.8 0.02 0.02 0.02 40 1007.1
20260506192100 61 185 0.0 2.6 0.02 0.02 0.02 40 1007.0
20260506191600 61 0 0.0 3.5 0.01 0.01 0.01 44 1007.2
20260506191059 61 0 0.0 3.5 0.00 0.00 0.00 49 1007.2
20260506190559 62 0 0.0 2.6 0.00 0.00 0.00 49 1007.1
20260506190106 62 0 0.0 2.6 0.00 0.00 0.00 53 1007.2
20260506185558 62 0 0.0 2.6 0.00 0.00 0.00 57 1007.1
20260506185100 63 0 0.0 2.6 0.00 0.00 0.00 59 1007.1
20260506184609 63 0 0.0 2.6 0.00 0.00 0.00 61 1007.1
20260506184059 64 0 0.0 2.6 0.00 0.00 0.00 65 1007.3
20260506183559 64 279 0.0 3.5 0.00 0.00 0.00 67 1007.4
20260506183105 65 279 0.0 3.5 0.00 0.00 0.00 68 1007.4
20260506182559 65 0 0.0 3.5 0.00 0.00 0.00 68 1007.4
20260506182058 66 319 0.0 3.5 0.00 0.00 0.00 69 1007.5
20260506181624 66 285 0.0 4.3 0.00 0.00 0.00 69 1007.6
20260506181059 67 242 0.0 5.2 0.00 0.00 0.00 68 1007.6
20260506180601 67 311 0.9 5.2 0.00 0.00 0.00 68 1007.5
20260506175559 68 267 0.0 6.1 0.00 0.00 0.00 66 1007.4
20260506175058 68 0 1.7 8.7 0.00 0.00 0.00 65 1007.7
20260506174558 69 336 3.5 8.7 0.00 0.00 0.00 64 1007.7
20260506174058 69 267 0.0 6.1 0.00 0.00 0.00 63 1007.9
20260506173558 70 0 1.7 7.0 0.00 0.00 0.00 61 1007.5
20260506173113 70 257 0.9 7.0 0.00 0.00 0.00 61 1007.6
20260506172601 70 121 0.9 7.0 0.00 0.00 0.00 61 1007.7
20260506172059 70 257 0.9 7.0 0.00 0.00 0.00 59 1007.7
20260506171606 71 290 2.6 9.6 0.00 0.00 0.00 59 1007.7
20260506171101 71 302 1.7 9.6 0.00 0.00 0.00 59 1007.6
20260506170601 71 291 1.7 9.6 0.00 0.00 0.00 59 1007.5
20260506170058 71 296 0.9 8.7 0.00 0.00 0.00 59 1007.5
20260506165600 71 306 0.9 8.7 0.00 0.00 0.00 59 1007.5
20260506165059 71 262 0.9 8.7 0.00 0.00 0.00 59 1007.7
20260506164614 71 302 0.0 5.2 0.00 0.00 0.00 60 1007.7
20260506164058 71 284 0.0 5.2 0.00 0.00 0.00 61 1007.8
20260506163558 70 115 0.9 5.2 0.00 0.00 0.00 60 1007.8
20260506163105 70 296 0.0 6.1 0.00 0.00 0.00 60 1007.9
20260506162558 70 24 0.9 6.1 0.00 0.00 0.00 59 1008.2
20260506162101 70 300 0.9 6.1 0.00 0.00 0.00 60 1008.2
20260506161600 70 0 0.9 6.1 0.00 0.00 0.00 60 1008.3
20260506161100 70 28 0.0 5.2 0.00 0.00 0.00 61 1008.1
20260506160600 70 0 0.0 5.2 0.00 0.00 0.00 61 1008.3
20260506160109 70 286 1.7 5.2 0.00 0.00 0.00 61 1008.3
20260506155602 70 0 0.9 6.1 0.00 0.00 0.00 62 1008.5
20260506155059 69 0 0.9 6.1 0.00 0.00 0.00 62 1008.4
20260506154603 69 0 0.9 6.1 0.00 0.00 0.00 63 1008.6
20260506154059 69 296 0.9 5.2 0.00 0.00 0.00 63 1008.6
20260506153559 69 0 0.9 5.2 0.00 0.00 0.00 63 1008.7
20260506153113 69 0 0.9 8.7 0.00 0.00 0.00 63 1008.7
20260506152559 69 273 1.7 8.7 0.00 0.00 0.00 63 1008.9
20260506152058 69 0 0.0 4.3 0.00 0.00 0.00 64 1008.9
20260506151558 69 0 0.9 5.2 0.00 0.00 0.00 64 1008.9
20260506151102 69 292 1.7 6.1 0.00 0.00 0.00 64 1009.0
20260506150558 69 281 1.7 6.1 0.00 0.00 0.00 64 1009.1
20260506150104 69 294 1.7 5.2 0.00 0.00 0.00 65 1009.1
20260506145559 68 0 1.7 5.2 0.00 0.00 0.00 65 1009.1
20260506145100 68 0 0.9 5.2 0.00 0.00 0.00 65 1009.1
20260506144610 68 255 0.0 4.3 0.00 0.00 0.00 66 1009.0
20260506144059 68 0 0.0 6.1 0.00 0.00 0.00 66 1009.0
20260506143559 68 0 0.9 6.1 0.00 0.00 0.00 66 1009.3
20260506143058 67 0 0.9 5.2 0.00 0.00 0.00 67 1009.2
20260506142559 67 0 0.9 3.5 0.00 0.00 0.00 67 1009.1
20260506142100 67 0 0.0 6.1 0.00 0.00 0.00 68 1009.2
20260506141559 67 281 1.7 6.1 0.00 0.00 0.00 68 1009.1
20260506141059 67 298 0.9 4.3 0.00 0.00 0.00 68 1009.1
20260506140559 66 0 0.0 3.5 0.00 0.00 0.00 69 1009.0
20260506140106 66 250 0.0 3.5 0.00 0.00 0.00 69 1009.1
20260506135559 66 0 0.0 3.5 0.00 0.00 0.00 69 1009.1
20260506135059 65 0 0.9 3.5 0.00 0.00 0.00 69 1009.2
20260506134556 65 0 0.9 4.3 0.00 0.00 0.00 69 1009.2
20260506134102 65 275 0.0 6.1 0.00 0.00 0.00 69 1009.3
20260506133559 64 307 0.9 6.1 0.00 0.00 0.00 69 1009.2
20260506133058 64 286 0.0 3.5 0.00 0.00 0.00 69 1009.1
20260506132558 64 0 0.0 5.2 0.00 0.00 0.00 69 1009.3
20260506132059 64 286 0.0 5.2 0.00 0.00 0.00 69 1009.7
20260506131558 64 0 0.9 5.2 0.00 0.00 0.00 69 1009.7
20260506131059 63 0 0.9 3.5 0.00 0.00 0.00 69 1009.8
20260506130559 63 268 0.0 3.5 0.00 0.00 0.00 68 1009.8
20260506130058 63 0 0.0 3.5 0.00 0.00 0.00 68 1009.8
20260506125558 63 288 0.9 4.3 0.00 0.00 0.00 69 1009.8
20260506125058 63 0 0.0 4.3 0.00 0.00 0.00 68 1009.7
20260506124559 63 0 0.0 7.0 0.00 0.00 0.00 68 1009.5
20260506124058 63 0 0.0 7.0 0.00 0.00 0.00 67 1009.6
20260506123559 62 275 0.9 7.0 0.00 0.00 0.00 67 1009.6
20260506123102 62 269 0.9 3.5 0.00 0.00 0.00 66 1009.7
20260506122557 62 282 0.9 3.5 0.00 0.00 0.00 66 1009.6
20260506122058 61 187 0.0 3.5 0.00 0.00 0.00 65 1009.7
20260506121602 61 0 0.0 2.6 0.00 0.00 0.00 65 1009.8
20260506121101 61 275 0.0 2.6 0.00 0.00 0.00 63 1009.6
20260506120559 61 0 0.0 3.5 0.00 0.00 0.00 63 1009.7
20260506120059 60 0 0.0 3.5 0.00 0.00 0.00 61 1009.9
20260506115559 60 0 0.0 2.6 0.00 0.00 0.00 60 1009.8
20260506115059 60 256 0.0 2.6 0.00 0.00 0.00 58 1009.8
20260506114601 60 0 0.0 3.5 0.00 0.00 0.00 57 1009.8
20260506114058 59 254 0.0 3.5 0.00 0.00 0.00 57 1010.0
20260506113558 59 304 0.0 2.6 0.00 0.00 0.00 57 1010.0
20260506113100 59 0 0.0 2.6 0.00 0.00 0.00 57 1010.1
20260506112559 59 310 0.0 2.6 0.00 0.00 0.00 57 1010.0
20260506112058 59 0 0.0 2.6 0.00 0.00 0.00 56 1010.2
20260506111604 59 0 0.9 4.3 0.00 0.00 0.00 56 1010.4
20260506111058 59 288 0.0 4.3 0.00 0.00 0.00 56 1010.2
20260506110558 59 0 0.9 4.3 0.00 0.00 0.00 55 1010.1
20260506105559 58 256 0.0 3.5 0.00 0.00 0.00 54 1010.2
20260506105059 58 0 0.0 3.5 0.00 0.00 0.00 53 1010.0
20260506104607 58 0 0.0 3.5 0.00 0.00 0.00 53 1010.1
20260506104058 58 0 0.0 3.5 0.00 0.00 0.00 52 1010.0
20260506103558 58 0 0.0 2.6 0.00 0.00 0.00 53 1010.0
20260506103110 58 0 0.0 2.6 0.00 0.00 0.00 53 1009.9
20260506102559 58 0 0.0 2.6 0.00 0.00 0.00 53 1009.8
20260506102104 58 271 0.0 3.5 0.00 0.00 0.00 53 1010.0
20260506101559 58 0 0.0 3.5 0.00 0.00 0.00 54 1010.1
20260506101058 58 0 0.0 2.6 0.00 0.00 0.00 54 1010.1
20260506100558 58 0 0.0 2.6 0.00 0.00 0.00 54 1010.1
20260506100056 58 0 0.0 2.6 0.00 0.00 0.00 55 1009.9
20260506095558 58 0 0.0 2.6 0.00 0.00 0.00 55 1009.9
20260506095058 58 0 0.0 2.6 0.00 0.00 0.00 56 1009.9
20260506094558 58 0 0.0 2.6 0.00 0.00 0.00 56 1009.9
20260506094103 58 0 0.0 2.6 0.00 0.00 0.00 57 1009.9
20260506093559 58 0 0.0 3.5 0.00 0.00 0.00 57 1009.9
20260506093103 58 0 0.0 3.5 0.00 0.00 0.00 57 1009.8
20260506092559 58 0 0.0 2.6 0.00 0.00 0.00 58 1009.8
20260506092112 58 0 0.0 2.6 0.00 0.00 0.00 58 1009.9
20260506091602 58 284 0.0 1.7 0.00 0.00 0.00 58 1009.9
20260506091101 58 284 0.0 1.7 0.00 0.00 0.00 59 1009.9
20260506090602 58 0 0.0 1.7 0.00 0.00 0.00 59 1009.9
20260506090104 58 0 0.0 1.7 0.00 0.00 0.00 60 1009.8
20260506085558 58 0 0.0 1.7 0.00 0.00 0.00 60 1009.8
20260506085058 58 0 0.0 1.7 0.00 0.00 0.00 61 1009.9
20260506084607 58 0 0.0 1.7 0.00 0.00 0.00 61 1009.9
20260506084056 58 0 0.0 1.7 0.00 0.00 0.00 61 1010.0
20260506083557 58 0 0.0 2.6 0.00 0.00 0.00 61 1009.9
20260506083058 58 0 0.0 2.6 0.00 0.00 0.00 62 1009.9
20260506082557 58 0 0.0 7.8 0.00 0.00 0.00 63 1009.9
20260506082059 58 0 0.0 7.8 0.00 0.00 0.00 63 1010.0
20260506081600 58 0 0.9 7.8 0.00 0.00 0.00 63 1009.9
20260506081058 59 314 0.0 2.6 0.00 0.00 0.00 64 1009.9
20260506080559 59 0 0.0 2.6 0.00 0.00 0.00 65 1009.9
20260506080107 59 0 0.0 2.6 0.00 0.00 0.00 65 1009.8
20260506073059 59 273 0.9 5.2 0.00 0.00 0.00 67 1010.0
20260506072559 60 273 0.0 5.2 0.00 0.00 0.00 67 1010.0
20260506072059 60 283 0.0 3.5 0.00 0.00 0.00 68 1009.9
20260506071605 60 0 0.0 7.0 0.00 0.00 0.00 68 1009.8
20260506071059 60 278 0.9 7.0 0.00 0.00 0.00 68 1009.7
20260506070602 60 298 0.9 7.0 0.00 0.00 0.00 68 1009.7
20260506062058 61 284 0.9 3.5 0.00 0.00 0.00 69 1009.6
20260506061557 61 222 0.9 5.2 0.00 0.00 0.00 69 1009.5
20260506061058 61 263 0.0 5.2 0.00 0.00 0.00 69 1009.6
20260506060559 61 273 0.9 5.2 0.00 0.00 0.00 69 1009.6
20260506051059 62 0 0.9 3.5 0.00 0.00 0.00 69 1009.9
20260506050559 62 276 0.0 7.0 0.00 0.00 0.00 69 1009.8
20260506050105 62 305 0.9 7.0 0.00 0.00 0.00 68 1010.0
20260506045100 62 0 0.0 5.2 0.00 0.00 0.00 68 1010.1
20260506044600 62 0 0.0 3.5 0.00 0.00 0.00 68 1010.0
20260506044058 62 268 0.9 3.5 0.00 0.00 0.00 68 1010.1
20260506043558 62 0 0.0 3.5 0.00 0.00 0.00 68 1010.0
20260506043101 62 254 0.9 3.5 0.00 0.00 0.00 67 1010.0
20260506042558 62 290 0.0 3.5 0.00 0.00 0.00 67 1010.1
20260506042058 62 288 0.9 6.1 0.00 0.00 0.00 67 1010.1
20260506041605 62 275 0.9 6.1 0.00 0.00 0.00 67 1010.0
20260506041058 62 289 0.9 7.0 0.00 0.00 0.00 67 1009.9
20260506040558 62 286 0.9 7.0 0.00 0.00 0.00 67 1010.1
20260506040059 62 340 1.7 7.0 0.00 0.00 0.00 67 1010.0
20260506035602 62 284 0.9 7.0 0.00 0.00 0.00 67 1010.0
20260506035058 62 0 0.9 8.7 0.00 0.00 0.00 67 1010.0
20260506034614 62 261 0.9 8.7 0.00 0.00 0.00 68 1010.0
20260506034059 61 292 0.0 5.2 0.00 0.00 0.00 68 1009.9
20260506033558 61 265 0.9 5.2 0.00 0.00 0.00 68 1010.0
20260506033059 61 0 0.0 5.2 0.00 0.00 0.00 68 1010.0
20260506032559 61 0 0.0 5.2 0.00 0.00 0.00 68 1009.9
20260506032058 61 0 0.9 4.3 0.00 0.00 0.00 68 1009.9
20260506031606 61 0 0.0 5.2 0.00 0.00 0.00 68 1009.9
20260506031058 61 0 0.9 5.2 0.00 0.00 0.00 67 1009.9
20260506030558 61 0 0.9 3.5 0.00 0.00 0.00 67 1010.0
20260506025602 61 0 0.0 4.3 0.00 0.00 0.00 67 1009.9
20260506025100 61 296 0.9 4.3 0.00 0.00 0.00 67 1009.9
20260506024619 61 0 0.9 4.3 0.00 0.00 0.00 67 1009.9
20260506024058 61 0 0.0 4.3 0.00 0.00 0.00 67 1010.0
20260506023558 61 241 0.9 4.3 0.00 0.00 0.00 67 1009.9
20260506023106 61 307 0.0 2.6 0.00 0.00 0.00 67 1009.9
20260506022558 61 290 0.0 2.6 0.00 0.00 0.00 67 1010.0
20260506022058 61 290 0.0 2.6 0.00 0.00 0.00 67 1010.0
20260506021559 62 0 0.9 4.3 0.00 0.00 0.00 66 1010.1